Location: Domingo Flat
(37.7324°N, 119.8846°W)
Time: 03:40:33
(UTC+00:00)

Daily predictions for brighter satellites

Satellite Brightness Start Highest point End
(mag) Time Altitude Azimuth Time Altitude Azimuth Time Altitude Azimuth
Cosmos 1782 2.7 03:32:35 10° S 03:36:19 61° E 03:40:05 10° NNE
Meteor 2-21 4.5 03:32:52 10° S 03:39:00 68° E 03:45:06 10° NNE
SL-24 R/B - RUBIN 2 4.4 03:33:28 10° SSW 03:39:23 82° ESE 03:45:58 10° NNE
Cosmos 2237 Rocket 3.6 03:34:14 10° SW 03:39:40 45° WNW 03:45:08 10° N
PSLV R/B 4.4 03:37:38 10° SE 03:41:07 37° ENE 03:44:34 10° N
OAO 2 Rocket 3.7 03:39:01 10° W 03:44:13 58° S 03:49:22 10° ESE
USA 290 3.7 03:41:54 10° N 03:44:31 22° ENE 03:47:07 10° ESE
Okean O Rocket 2.0 03:40:27 10° SE 03:44:41 47° ENE 03:48:57 10° N
Cosmos-2242 3.0 03:41:01 10° S 03:45:13 87° W 03:49:28 10° N
Meteor 2-21 Rocket 4.5 03:49:16 10° S 03:55:24 66° E 04:01:31 10° NNE
Cosmos 1943 4.5 03:51:29 10° SE 03:55:26 20° E 03:59:23 10° NE
DELTA 2 DEB (DPAF) 4.0 03:54:34 10° NNE 03:58:49 88° W 04:03:02 10° SSW
Cosmos 1072 Rocket 4.4 03:53:58 10° N 04:00:08 77° E 04:06:13 10° S
Cosmos 2344 4.4 03:54:04 10° NNW 04:02:54 69° NE 04:14:20 13° SE
Cosmos 44 4.2 04:00:24 10° NNW 04:04:44 33° NE 04:08:06 14° ESE
SL-8 R/B 3.6 04:00:17 10° SW 04:05:01 87° SSE 04:09:48 10° ENE
Cosmos 1943 Rocket 2.5 04:01:19 10° NNW 04:06:55 66° WSW 04:12:27 10° S
Cosmos 2221 2.7 04:13:28 10° S 04:17:39 52° E 04:21:51 10° NNE
ERS-1 Rocket 4.3 04:15:21 15° ESE 04:18:15 25° ENE 04:22:17 10° NNE
Lacrosse 5 rocket 4.4 04:16:33 10° WNW 04:19:23 17° NNW 04:22:12 10° N
Cosmos 494 Rocket 4.4 04:15:01 10° S 04:19:45 40° ESE 04:24:31 10° NNE
USA 186 3.8 04:17:11 10° SSW 04:19:53 27° W 04:22:40 10° NW
CZ-4C R/B 3.2 04:19:37 10° NNE 04:23:26 69° ESE 04:27:24 10° S
Okean-O 2.6 04:21:15 16° SSE 04:24:41 67° ENE 04:29:04 10° N
CZ-4B R/B 4.2 04:19:40 10° S 04:24:46 44° W 04:29:51 10° NNW
Cosmos 2278 Rocket 4.2 04:22:42 10° NW 04:27:09 24° WSW 04:31:36 10° SSW
CARTOSAT-1 4.4 04:24:29 10° S 04:28:35 47° W 04:32:42 10° NNW
ATLAS 3B R/B 3.0 04:22:30 10° NNW 04:30:25 83° ENE 04:36:15 19° SE
Cosmos 1464 Rocket 4.4 04:24:30 10° NNW 04:30:43 66° W 04:36:50 10° S
Cosmos 921 Rocket 3.0 04:31:43 10° SSW 04:36:11 86° ESE 04:40:41 10° NNE
Cosmos 1378 4.4 04:35:11 10° SSW 04:38:12 35° W 04:41:16 10° N
Cosmos 2297 3.9 04:32:58 10° NNW 04:38:38 59° ENE 04:41:57 25° SE
MetOp-B 4.2 04:35:30 21° SSE 04:39:03 64° ENE 04:44:20 10° N
Cosmos 1371 Rocket 4.0 04:34:19 10° NNW 04:39:41 75° ENE 04:43:01 24° SSE
Lacrosse 5 2.0 04:36:54 10° NW 04:42:00 73° SW 04:44:52 26° SSE
Cosmos 1420 Rocket 4.1 04:42:41 10° NNW 04:48:00 76° WSW 04:51:27 22° S
MOS 1 4.3 04:44:24 18° SSE 04:48:42 84° WSW 04:54:24 10° NNW
Terra 2.4 04:50:17 30° ESE 04:52:00 42° ENE 04:56:26 10° N
Cosmos 1743 2.5 04:48:59 10° N 04:52:34 65° E 04:53:28 45° SE
SPOT 3 Rocket 4.3 04:53:09 27° ESE 04:55:00 36° ENE 04:59:40 10° N
Cosmos 2279 Rocket 4.4 04:53:00 10° N 04:58:55 45° ENE 05:01:26 30° SE
SL-16 R/B 3.9 04:54:16 10° SW 04:59:22 34° WNW 05:04:30 10° N
GEOS 3 Rocket 3.5 04:55:58 10° NE 05:01:04 60° ESE 05:06:03 10° SSW
Cosmos 1603 3.9 04:59:26 29° SSE 05:01:56 47° ESE 05:07:21 10° NE
Spot 2 Rocket 3.8 05:00:14 34° ESE 05:02:00 48° ENE 05:06:49 10° N
IRS-1A Rocket 4.2 04:59:19 28° SSE 05:02:29 85° ENE 05:08:04 10° NNW
SPOT 5 2.8 05:00:20 28° S 05:02:45 74° WSW 05:07:14 10° NNW
Meteor 2-6 Rocket 4.2 04:58:56 14° S 05:03:54 85° W 05:09:26 10° N
Cosmos 1634 Rocket 3.9 04:58:26 10° N 05:04:44 79° E 05:08:07 29° SSE
Resurs 01 Rocket 4.1 05:02:51 10° SW 05:05:48 17° W 05:08:44 10° NW
ISS -1.3 05:04:58 10° NNW 05:07:09 16° NNE 05:08:29 13° NE
Cosmos 2263 4.4 05:03:33 10° NNW 05:09:11 58° ENE 05:11:17 37° SE
Cosmos 1726 2.9 05:07:01 10° N 05:09:12 30° NE 05:09:12 30° NE
USA 276 3.9 05:08:47 10° NNW 05:09:54 19° N 05:09:54 19° N
Cosmos 2369 Rocket 2.1 05:08:33 10° NNW 05:14:10 87° ENE 05:16:18 40° SSE
Okean 3 Rocket 3.4 05:12:01 10° N 05:16:23 73° E 05:17:12 56° SE
Cosmos 1842 Rocket 3.6 05:17:14 34° SSW 05:19:07 75° W 05:23:33 10° N
Okean O Rocket 4.3 05:18:51 10° SW 05:21:10 14° W 05:23:31 10° WNW
Ariane Rocket 2.9 05:23:15 49° SSE 05:24:39 79° ENE 05:29:44 10° N
ARGOS Delta rocket 4.1 05:25:55 38° S 05:27:51 68° W 05:32:44 10° NNW
OAO 2 Rocket 4.5 05:24:01 10° W 05:28:27 29° SSW 05:28:27 29° SSW
Cosmos 1656 Rocket 4.2 05:25:20 10° NNW 05:30:36 50° WSW 05:32:42 33° SSW
Landsat 4 3.8 05:32:03 62° W 05:32:03 62° W 05:35:23 10° NNW
USA 229 DEB 4.0 05:24:51 10° NNW 05:32:31 87° ENE 05:35:58 39° SE
USA 229 4.0 05:24:57 10° NNW 05:32:37 87° ENE 05:36:04 39° SE
Meteor 1-27 Rocket 3.7 05:33:37 52° SE 05:34:34 61° E 05:40:00 10° NNE
Cosmos 1340 Rocket 3.9 05:36:22 34° NE 05:36:22 34° NE 05:39:03 10° NNE
Spot 1 3.8 05:34:37 10° NNE 05:38:43 88° E 05:38:48 86° SSE
Cosmos 1943 3.9 05:33:28 10° SW 05:38:59 52° WNW 05:44:32 10° NNE
Cosmos 1452 Rocket 3.4 05:34:23 10° NNW 05:39:36 73° ENE 05:40:24 61° SE
Cosmos 2084 4.4 05:37:29 10° NW 05:40:39 32° WSW 05:40:39 32° WSW
Cosmos 2180 Rocket 4.4 05:36:08 10° N 05:42:20 74° E 05:43:51 52° SSE
Cosmos 2142 Rocket 4.5 05:40:00 10° N 05:46:22 86° W 05:48:23 47° S
ARIANE 5 R/B 4.4 05:51:42 20° ENE 05:51:42 20° ENE 05:54:22 10° NNE
Sich 1 3.4 05:48:34 10° N 05:52:22 55° NE 05:52:22 55° NE
Meteor 2-4 Rocket 4.4 05:56:10 40° E 05:56:10 40° E 06:01:29 10° NNE
ERS-1 Rocket 4.2 05:55:17 29° SW 05:56:48 35° W 06:01:22 10° NNW
Meteor 2-9 Rocket 4.2 05:55:10 10° N 06:01:03 83° E 06:01:51 68° SSE
FALCON 9 R/B 3.8 05:58:27 10° W 06:05:01 65° S 06:30:17 10° ESE
Cosmos 1743 Rocket 3.8 06:01:00 10° N 06:04:46 63° NNE 06:04:46 63° NNE
Lacrosse 4 Rocket 4.0 06:04:36 10° NNE 06:05:47 11° NE 06:05:57 11° NE
Landsat 5 4.2 06:02:28 10° N 06:05:48 43° WNW 06:05:48 43° WNW
MOS 1 Rocket 4.3 06:13:27 39° WSW 06:14:06 41° W 06:19:03 10° NNW
Cosmos 614 Rocket 4.1 06:15:46 66° NE 06:15:46 66° NE 06:20:22 10° NNE
USA 59 Rocket 1.7 06:13:37 10° N 06:17:19 28° NE 06:17:27 27° ENE
Cosmos 1428 Rocket 4.3 06:17:15 73° SSE 06:17:49 81° E 06:23:57 10° N
Cosmos 1092 Rocket 3.9 06:22:39 67° ESE 06:22:52 67° E 06:29:08 10° NNE
USA 281 3.3 06:23:07 56° SSW 06:24:14 65° WSW 06:30:49 10° NNW
Cosmos 1302 Rocket 4.1 06:20:58 10° NNW 06:25:45 71° NNE 06:25:45 71° NNE
Terra 3.9 06:28:59 17° WSW 06:29:44 18° W 06:32:54 10° NW
IRIDIUM 104 4.5 06:26:30 10° N 06:31:10 68° NNE 06:31:10 68° NNE
Cosmos 2195 Rocket 4.3 06:36:02 73° SW 06:36:31 79° W 06:42:39 10° N
CZ-2C R/B 4.4 06:32:51 10° N 06:36:13 50° N 06:36:13 50° N
Cosmos 1818 4.0 06:40:38 54° NE 06:40:38 54° NE 06:44:52 10° NNE
IRIDIUM 114 4.5 06:35:39 10° N 06:40:18 71° NNW 06:40:18 71° NNW
ISS -0.6 06:40:49 10° NW 06:41:16 13° NW 06:41:16 13° NW
Cosmos 1151 Rocket 4.5 06:45:00 34° WNW 06:45:00 34° WNW 06:48:26 10° NNW
Cosmos 1833 Rocket 3.7 06:54:45 36° ENE 06:54:45 36° ENE 06:58:22 10° NE
ALOS 2 4.2 07:08:14 31° NNE 07:08:14 31° NNE 07:10:51 10° N
H-2A R/B 4.5 07:05:01 10° NE 07:06:13 16° NE 07:06:13 16° NE
Cosmos 1633 Rocket 4.5 07:05:34 10° NNW 07:08:17 36° NNW 07:08:17 36° NNW
Cosmos 1656 4.1 07:21:50 10° NNW 07:26:08 57° NNW 07:26:08 57° NNW
USA 267 3.2 07:32:32 10° NE 07:39:05 79° NW 07:39:36 74° W
S3M 4.2 07:37:26 10° N 07:43:29 65° ENE 07:43:29 65° ENE
Lacrosse 4 Rocket 3.7 07:40:25 10° NNW 07:41:51 21° NW 07:41:51 21° NW
Cosmos 2285 Rocket 4.0 07:51:06 75° NNE 07:51:06 75° NNE 07:56:53 10° NNE
Cosmos 1697 Rocket 3.2 07:47:44 10° NNW 07:52:32 56° NNE 07:52:32 56° NNE
Cosmos 1553 Rocket 4.4 07:47:43 10° NNW 07:52:56 50° WNW 07:52:56 50° WNW
Cosmos 1980 Rocket 3.4 07:55:15 10° N 08:00:24 33° ENE 08:00:53 33° ENE
COSMOS 2406 4.2 08:07:38 38° ENE 08:07:38 38° ENE 08:11:43 10° NE
USA 59 Rocket 2.5 08:02:43 10° NW 08:03:59 18° WNW 08:03:59 18° WNW
CZ-2C R/B 3.9 08:07:55 48° ENE 08:07:55 48° ENE 08:18:18 10° N
Cosmos 1607 4.4 08:10:57 55° WNW 08:11:19 56° NW 08:17:43 10° NNE
USA 234 4.4 08:06:05 10° E 08:12:02 39° NNE 08:18:00 10° NNW
Meteor 2-10 Rocket 4.3 08:09:51 10° N 08:15:04 53° ENE 08:15:04 53° ENE
Cosmos 1655 Rocket 4.0 08:18:52 74° NW 08:18:52 74° NW 08:24:51 10° N
Cosmos 2082 Rocket 2.4 08:36:05 67° N 08:36:05 67° N 08:41:02 10° NNE
Meteor 1-21 4.5 08:36:16 65° NE 08:36:16 65° NE 08:41:13 10° NNE
Cosmos 1833 Rocket 4.4 08:36:23 23° WNW 08:37:07 23° WNW 08:41:33 10° N
Meteor 2-20 4.4 08:34:20 10° N 08:40:17 78° NE 08:40:17 78° NE
H-2A R/B 4.0 08:40:33 10° NNW 08:43:01 23° NW 08:43:01 23° NW
BREEZE-M R/B 4.5 08:47:03 33° ESE 08:47:03 33° ESE 08:53:06 10° ENE
CZ-2D R/B 4.2 08:43:58 10° NE 08:47:23 17° E 08:47:51 17° E
DELTA 2 R/B (1) 4.2 08:49:50 50° ENE 08:49:50 50° ENE 08:53:58 10° E
Resurs 1-4 Rocket 3.7 08:56:56 10° NE 09:01:03 23° E 09:01:18 23° E
Cosmos 1953 4.3 08:58:38 10° NNE 09:00:54 26° NE 09:00:54 26° NE
Cosmos 676 Rocket 4.3 09:03:55 63° NNW 09:03:55 63° NNW 09:08:31 10° NNE
Cosmos 468 Rocket 4.2 09:05:29 10° NNW 09:10:03 66° N 09:10:03 66° N
CZ-2C R/B 4.4 09:15:09 17° ESE 09:17:43 26° ENE 09:21:54 10° NNE
Cosmos 1763 Rocket 4.4 09:14:23 10° NNW 09:18:00 39° NW 09:18:00 39° NW
Lacrosse 5 rocket 3.9 09:16:50 10° NNW 09:19:48 19° NE 09:22:41 10° E
Meteor 2-20 Rocket 4.5 09:13:58 10° NNW 09:20:27 71° W 09:20:41 70° WSW
Cosmos 2322 Rocket 4.1 09:25:51 10° N 09:30:36 27° ENE 09:35:19 10° ESE
MOZ.5/SAFIR/RUBIN 5/SL-8 4.0 09:31:01 70° NE 09:31:01 70° NE 09:35:24 10° N
Okean 1-7 4.2 09:33:00 36° NNW 09:33:00 36° NNW 09:35:54 10° N
Cosmos 1745 Rocket 3.8 09:31:52 72° S 09:32:34 89° E 09:38:52 10° N
Cosmos 1315 Rocket 4.1 09:36:04 37° N 09:36:04 37° N 09:38:33 10° N
Cosmos 540 Rocket 4.3 09:31:56 10° NNW 09:35:30 38° WNW 09:35:30 38° WNW
NPP 3.7 09:32:15 10° NNE 09:37:39 67° ESE 09:38:03 65° SE
ALOS 4.5 09:39:16 10° NE 09:42:12 16° E 09:43:48 14° ESE
SJ 16-02 2.4 09:43:39 37° E 09:43:39 37° E 09:47:25 10° NE
NOSS 3-4 (A) 4.2 09:36:53 10° NW 09:43:48 47° WSW 09:43:55 47° WSW
NOSS 3-4 (C) 4.2 09:36:59 10° NW 09:43:54 47° WSW 09:44:04 47° WSW
Cosmos 1980 Rocket 3.5 09:39:18 10° NW 09:42:36 27° WNW 09:42:36 27° WNW
ADEOS II 3.0 09:42:28 10° NNE 09:47:21 39° E 09:48:35 34° SE
ATLAS CENTAUR R/B 4.3 09:39:41 10° NW 09:50:48 41° WSW 09:51:48 40° SW
IDEFIX/ARIANE 42P 2.4 09:46:30 10° NNE 09:51:48 88° WNW 09:52:14 76° SSW
Genesis I 4.3 09:53:59 37° NE 09:53:59 37° NE 09:56:17 10° NE
USA 234 3.1 09:52:38 43° SSE 09:54:46 64° SW 10:01:17 10° NW
Cosmos 1455 4.0 09:52:28 10° NNW 09:53:52 22° NNW 09:53:52 22° NNW
Nadezhda 1 Rocket 4.0 09:53:45 10° NNW 10:00:04 63° W 10:01:13 54° SW
Cosmos 1782 Rocket 3.5 10:00:50 10° N 10:04:59 79° NW 10:04:59 79° NW
Cosmos 1850 Rocket 4.3 10:07:29 48° W 10:08:02 50° WNW 10:13:10 10° N
CZ-2C R/B 3.3 10:05:52 10° NNE 10:11:42 77° ESE 10:13:31 45° S
Cosmos 1741 Rocket 4.4 10:12:46 45° W 10:13:24 47° WNW 10:18:27 10° N
SL-16 R/B 2.1 10:09:48 10° NNW 10:15:30 82° WSW 10:17:48 38° SSE
SL-27 R/B 3.8 10:18:20 29° NNE 10:18:20 29° NNE 10:19:52 10° NNE
H-2A R/B 4.3 10:16:29 10° N 10:19:45 35° WNW 10:19:45 35° WNW
Cosmos 2082 Rocket 4.4 10:17:54 10° WNW 10:20:13 13° NW 10:22:39 10° NNW
Cosmos 1242 Rocket 4.3 10:22:16 18° NNW 10:22:16 18° NNW 10:23:19 10° N
AQUA 4.0 10:16:37 10° NNE 10:21:19 66° E 10:22:38 45° SSE
Cosmos 1825 4.5 10:20:53 13° ESE 10:22:28 16° E 10:24:41 10° NE
Cosmos 968 Rocket 3.6 10:21:56 49° WSW 10:22:45 55° WNW 10:27:47 10° N
CRYOSAT 2 4.3 10:20:57 10° N 10:25:51 78° W 10:27:00 53° SSW
CZ-2D R/B 2.3 10:22:23 10° N 10:27:43 57° WNW 10:29:09 43° WSW
Cosmos 2219 Rocket 4.0 10:22:52 10° N 10:27:49 30° ENE 10:32:45 10° ESE
Cosmos 1892 4.4 10:29:09 19° SE 10:30:35 25° E 10:33:31 10° NE
OAO 3 Rocket 3.2 10:32:13 53° SW 10:32:55 59° S 10:37:43 10° ESE
Cosmos 1408 3.9 10:34:33 24° NW 10:34:33 24° NW 10:36:08 10° NNW
DELTA 2 R/B (1) 3.5 10:30:33 16° WNW 10:35:01 83° N 10:40:35 10° E
Cosmos 2237 4.4 10:30:32 10° NW 10:36:00 47° WSW 10:37:22 40° SW
Meteor 1-24 Rocket 3.8 10:33:42 35° S 10:36:28 87° W 10:42:30 10° N
Cosmos 841 Rocket 4.3 10:31:52 10° NW 10:36:14 32° W 10:36:14 32° W
Cosmos 2360 Rocket 2.4 10:31:24 10° NNW 10:37:05 72° ENE 10:42:44 10° SSE
Cosmos 2221 Rocket 4.4 10:35:30 24° SSE 10:37:57 47° E 10:42:18 10° NNE
Cosmos 2242 Rocket 4.1 10:38:01 39° W 10:38:23 39° WNW 10:42:35 10° N
SL-16 R/B 2.7 10:32:19 10° SSE 10:38:33 76° ENE 10:44:49 10° N
Tiangong -0.8 10:40:03 31° ESE 10:40:03 31° ESE 10:42:11 10° E
Resurs 1-4 Rocket 2.8 10:36:04 10° N 10:40:55 39° WNW 10:42:21 33° WSW
ATLAS 2AS CENTAUR R/B 4.2 10:34:45 10° NNW 10:40:57 36° NE 10:46:58 10° ESE
SL-4 R/B 2.0 10:41:18 54° SW 10:42:14 82° SE 10:46:40 10° NE
Cosmos 2181 Rocket 3.9 10:38:32 10° N 10:44:54 87° W 10:49:46 18° S
Sich 1 Rocket 4.4 10:43:46 10° N 10:48:08 49° E 10:52:26 10° SSE
Cosmos 2151 Rocket 4.1 10:45:46 10° N 10:50:11 57° E 10:54:17 11° SSE
FENGYUN 3A 3.9 10:47:35 10° N 10:52:48 55° WNW 10:55:07 32° SW
Cosmos 2098 Rocket 3.8 10:49:53 10° NNW 10:55:19 69° W 10:59:58 18° S
IRAS Rocket 4.1 10:51:23 10° NNE 10:56:54 80° WNW 11:00:04 26° SSW
SL-8 R/B 3.8 10:52:39 10° WNW 10:57:14 48° SW 11:01:49 10° SSE
CZ-2C R/B 3.2 10:56:38 31° SW 10:57:46 34° W 11:02:28 10° NNW
Lacrosse 5 rocket 1.2 10:54:32 10° NW 10:58:27 55° SW 11:02:10 10° SSE
Cosmos 1674 Rocket 3.5 10:57:39 29° S 10:59:54 87° W 11:04:22 10° N
Okean 2 Rocket 3.2 10:58:35 10° N 11:02:59 74° E 11:07:20 10° SSE
Cosmos 1814 Rocket 4.1 11:00:38 10° NNW 11:05:42 53° WSW 11:09:51 15° S
Cosmos 405 Rocket 3.0 11:03:30 10° N 11:07:05 60° E 11:10:41 10° SSE
Cosmos 2333 Rocket 2.2 11:05:37 10° NNW 11:11:18 66° WSW 11:16:58 10° S
ATLAS CENTAUR R/B 1.9 11:11:08 21° S 11:12:59 40° ESE 11:16:18 10° NE
Cosmos 839 Rocket 4.0 11:07:34 10° NNW 11:14:27 85° WSW 11:20:34 10° SSE
Cosmos 2322 Rocket 2.6 11:09:28 10° NW 11:14:43 40° WSW 11:19:22 13° S
Cosmos 1378 Rocket 3.9 11:15:01 27° SW 11:16:54 44° W 11:21:02 10° N
Cosmos 2297 Rocket 4.0 11:14:12 10° SSE 11:18:52 27° ESE 11:23:32 10° NE
ALOS 2.7 11:15:12 10° N 11:19:34 43° WNW 11:22:07 22° SW
Cosmos 1295 Rocket 4.5 11:15:13 17° SSW 11:19:56 65° W 11:26:00 10° N
OAO 1 Rocket 4.5 11:17:11 21° WSW 11:20:40 63° S 11:25:53 10° E
Cosmos 1486 Rocket 4.1 11:16:34 16° S 11:20:47 77° ESE 11:26:00 10° NNE
SJ 16-02 3.1 11:20:24 15° W 11:21:54 17° WNW 11:24:46 10° NNW
Cosmos 1570 Rocket 4.0 11:19:20 10° NNW 11:24:40 89° ENE 11:30:00 10° SSE
Meteor 1-28 Rocket 4.3 11:25:43 22° WSW 11:26:12 23° W 11:29:05 10° NW
ADEOS II 3.4 11:22:35 10° NNW 11:26:42 24° WNW 11:29:28 16° WSW
Cosmos 2208 Rocket 4.3 11:23:00 10° NNW 11:28:17 72° ENE 11:33:27 10° SSE
Okean 1 Rocket 3.0 11:24:16 10° N 11:28:36 88° E 11:32:54 10° S
UNK 4.0 11:30:01 10° S 11:34:28 46° W 11:38:57 10° NNW
CZ-2C R/B 2.3 11:32:18 10° NNE 11:37:03 82° E 11:41:39 10° S
METEOR-M 4.2 11:32:49 10° N 11:38:08 69° WNW 11:43:25 10° SSW
COSMOS 2455 3.9 11:35:34 10° S 11:41:11 43° ESE 11:46:50 10° NE
IRS-1D 3.8 11:35:57 10° NNE 11:41:17 74° ESE 11:46:32 10° S
Envisat 3.1 11:36:46 10° N 11:41:46 61° WNW 11:46:43 10° SSW
Cosmos 158 Rocket 4.1 11:40:53 10° NNW 11:46:17 89° WSW 11:51:36 10° SSE
RESURS DK-1 3.1 11:43:34 10° NW 11:47:08 30° WSW 11:50:41 10° SSW
CZ-4C R/B 3.6 11:51:47 10° SSE 11:55:14 25° ESE 11:59:12 10° NE
Cosmos 1825 3.4 11:54:26 13° WSW 11:56:31 20° WNW 11:59:09 10° NNW
